RH
42 45 38 32 28 37 39 57 82 48 51 69 63 82 65 62 57 58 49 46 47 47 51 53 51 52 52 54 57 56 54 56 65 51 46 46 48 50 43 59 61 54 54 52
35 41 43 38 33 31 36 51 56 43 51 79 68 53 57 56 52 54 49 52 50 51 52 53 49 51 52 56 56 54 52 59 69 52 48 46 54 45 44 45 53 63 56 42
33 35 38 39 36 32 36 55 85 57 58 71 48 50 53 56 60 51 50 48 47 46 46 45 50 50 54 58 58 64 59 53 56 55 44 43 45 44 45 50 66 45 41 31
33 35 36 37 38 34 35 53 65 64 61 48 46 47 50 52 55 48 46 43 47 47 41 41 43 45 46 58 63 58 53 62 58 50 41 39 42 44 41 56 54 50 30 36
40 36 35 36 36 37 39 51 53 58 50 55 41 44 51 52 54 49 44 42 44 38 41 45 44 44 39 38 45 47 51 64 55 76 40 44 49 41 40 40 40 42 39 40
45 42 39 34 35 36 45 49 48 54 51 44 38 40 46 51 55 56 50 47 45 41 45 50 48 49 47 44 42 43 48 56 61 59 38 37 38 30 35 36 33 34 39 28
49 45 42 40 35 34 40 44 49 47 35 40 41 47 51 47 50 51 48 53 46 54 57 60 65 58 53 50 49 47 47 52 57 76 48 51 26 32 36 31 30 29 32 29
42 55 50 46 42 39 37 39 44 54 34 42 43 49 47 48 49 53 54 50 58 59 54 40 35 40 44 46 49 50 47 48 56 65 41 27 20 29 37 40 26 25 32 29
29 56 60 55 49 42 41 40 42 44 45 36 48 43 50 41 34 36 46 54 52 59 41 37 37 25 30 32 42 46 50 49 54 44 47 24 20 29 36 35 30 20 26 26
30 45 66 63 57 55 49 50 50 52 52 48 46 38 43 55 48 39 44 48 57 55 38 35 31 32 40 34 33 54 55 54 63 55 53 34 23 35 40 33 23 25 31 32
57 27 50 70 63 61 57 56 56 60 65 56 43 42 54 57 54 37 48 49 56 49 46 37 32 38 32 40 28 29 32 40 47 43 47 58 36 45 32 25 30 36 40 40
67 44 26 54 67 68 68 59 58 58 61 65 48 46 44 44 46 52 57 53 47 45 40 38 37 38 36 31 25 31 38 23 22 28 30 28 38 26 32 35 34 39 39 45
71 69 32 26 52 66 66 71 65 60 66 64 65 55 44 46 51 49 50 59 57 65 66 48 42 50 36 36 34 29 29 27 35 28 20 23 25 28 33 42 41 39 44 44
89 67 60 32 27 52 70 67 68 73 64 76 57 49 48 47 51 58 60 62 61 63 66 57 52 48 40 37 31 38 26 35 33 30 26 26 26 28 30 33 35 37 39 47
98 83 72 50 31 29 54 68 69 71 74 76 67 61 55 58 61 59 64 71 78 73 73 70 64 49 56 44 48 53 33 34 37 30 24 23 24 32 32 37 38 38 38 46
98 97 79 74 40 29 54 82 67 69 77 69 73 70 68 68 69 78 81 88 86 79 72 65 62 69 55 57 47 31 36 34 31 27 33 34 35 34 36 40 40 41 40 40
100 98 96 89 59 37 51 79 63 52 60 60 78 72 70 80 82 93 94 88 90 84 77 73 63 70 74 67 53 27 36 39 41 40 42 47 44 45 42 43 46 45 44 46
100 100 98 95 82 49 44 48 75 76 75 73 98 88 65 83 82 78 91 87 92 86 76 80 76 74 77 78 49 42 37 43 46 46 45 42 44 45 44 46 49 50 50 51
100 100 100 98 75 60 73 72 78 84 79 89 88 91 91 78 86 88 90 89 81 81 80 72 76 68 92 66 58 51 49 55 54 49 54 55 54 48 47 48 48 54 56 56
100 100 98 68 71 80 83 86 90 94 89 87 90 79 83 75 81 78 76 83 77 88 71 82 82 78 58 55 58 56 55 55 56 56 55 50 52 48 50 42 41 55 57 59
100 98 98 90 79 84 87 94 94 89 94 88 89 87 73 64 80 72 76 89 81 92 82 83 78 76 58 54 58 58 57 55 53 62 59 53 52 54 50 45 54 57 58 57
98 99 99 98 98 99 98 94 88 92 86 78 81 79 78 81 67 72 86 86 85 94 81 87 91 70 53 52 44 45 37 28 30 43 46 41 34 41 41 44 53 53 54 56
100 99 100 98 97 100 96 96 93 90 81 92 87 85 77 74 75 76 78 94 91 73 85 79 71 53 44 35 35 32 26 24 26 31 34 32 34 42 44 46 50 46 44 50
98 100 100 99 97 92 84 76 82 79 80 92 85 86 78 78 82 70 92 68 71 87 97 78 67 49 42 35 30 25 23 25 29 32 30 30 34 37 43 47 48 45 41 42
100 100 98 97 86 83 74 75 72 65 76 80 78 80 73 83 86 73 82 83 93 76 73 74 55 36 35 30 19 19 22 23 24 24 25 28 32 34 36 39 43 46 46 45
100 100 99 99 97 93 90 71 78 65 67 72 70 85 86 84 82 86 88 76 79 78 88 42 32 30 25 19 18 19 20 22 23 24 27 29 29 29 30 31 33 35 38 42
99 98 75 90 75 71 73 76 72 66 80 86 89 96 86 82 83 81 69 80 81 50 40 34 35 37 29 20 19 22 22 24 24 26 29 30 30 30 32 33 33 42 38 41
Wind_Speed
23 24 19 16 11 19 16 10 4 10 11 6 3 6 4 2 4 3 3 4 6 5 2 3 2 4 4 3 1 2 3 3 3 3 3 2 6 8 5 3 2 5 4 3
18 22 23 20 12 6 10 7 7 16 8 5 7 7 6 6 4 6 4 5 6 3 2 2 4 3 3 2 1 4 2 1 2 2 3 3 6 7 7 5 3 8 4 2
16 18 21 21 15 5 4 2 2 7 10 2 4 6 6 4 3 5 4 3 1 0 3 2 3 3 2 3 1 2 2 3 5 5 5 3 6 7 9 7 4 6 10 11
13 17 18 19 18 9 5 6 4 1 1 5 7 4 1 5 3 4 3 3 5 3 2 2 3 1 3 3 2 2 3 4 5 11 14 13 14 14 11 13 14 6 5 10
12 14 16 16 17 11 11 3 2 3 2 1 1 1 2 3 2 1 3 4 2 3 2 2 2 2 2 1 4 2 1 3 8 5 4 6 13 16 18 18 18 16 19 21
12 13 14 14 16 15 9 8 5 2 2 2 4 2 2 1 2 1 0 1 2 3 1 4 7 8 6 3 2 2 2 3 4 5 2 11 13 18 20 14 13 16 14 11
11 12 12 13 12 13 13 12 5 3 2 2 3 1 1 1 2 3 1 3 3 1 6 8 5 8 10 10 9 8 3 4 2 5 10 4 1 1 2 13 16 16 16 11
11 8 11 13 12 10 8 9 7 4 2 2 2 2 4 4 3 3 3 2 2 7 6 4 4 4 4 5 7 10 10 5 4 3 6 15 10 4 5 5 8 16 18 15
10 10 7 9 12 11 7 4 3 2 3 2 2 2 3 4 3 3 2 3 5 3 3 3 3 2 3 3 4 2 6 8 5 2 4 5 3 5 3 2 6 3 7 9
14 9 7 7 9 12 9 5 4 1 4 5 5 4 1 2 2 4 2 2 2 1 2 3 3 2 1 3 3 4 4 6 12 10 6 9 4 11 8 3 2 3 5 6
12 12 9 7 6 9 11 7 5 5 5 8 9 9 8 5 5 3 2 3 2 2 3 2 1 3 2 3 5 4 7 5 5 6 7 9 14 8 6 3 2 1 3 6
13 13 11 8 7 6 8 8 8 9 9 9 10 12 15 15 13 8 5 2 1 2 3 2 3 4 3 4 4 4 5 9 3 8 5 2 18 8 12 2 1 2 4 5
13 13 13 11 9 8 8 8 9 12 9 14 14 15 17 21 23 21 9 7 8 3 5 2 2 6 2 4 6 6 6 11 5 4 7 14 22 20 20 14 11 11 11 10
16 13 13 13 12 10 10 10 9 10 8 5 5 9 9 9 13 20 23 15 9 8 6 5 4 4 6 5 8 10 11 7 8 14 18 26 23 19 20 16 14 11 14 17
15 16 14 13 12 12 11 12 13 12 7 5 11 19 23 21 19 16 18 20 11 7 5 5 5 6 3 9 6 12 18 10 10 6 5 12 7 5 7 7 8 10 11 13
15 14 13 14 12 11 10 4 4 2 6 4 4 5 7 7 7 10 11 10 9 8 6 6 7 5 5 4 5 6 17 27 26 15 6 9 10 14 14 15 18 19 20 17
15 15 13 13 13 9 5 4 2 0 2 4 7 3 3 3 3 3 5 10 5 6 6 7 10 8 8 4 9 6 14 22 24 23 17 15 21 14 15 14 15 16 15 14
15 16 15 13 14 14 13 16 17 12 5 5 3 4 3 6 4 5 5 3 5 6 6 3 5 4 8 8 17 22 26 17 18 20 24 27 16 17 20 20 18 16 15 14
14 15 13 14 11 4 6 8 11 13 13 4 4 3 2 7 3 3 5 5 4 4 4 5 4 5 9 15 20 22 19 14 8 8 17 20 20 21 17 18 18 19 18 17
12 11 6 4 4 6 9 4 2 7 9 8 6 6 3 7 5 4 3 4 3 3 3 3 5 8 29 32 27 21 16 17 15 13 13 16 19 19 20 21 20 19 18 18
14 5 6 7 5 3 4 3 4 5 4 8 7 8 7 7 4 3 5 2 2 3 2 3 3 5 5 10 10 15 23 22 24 24 20 20 19 23 19 15 14 16 15 16
9 6 7 4 4 4 3 3 2 5 5 5 3 2 6 3 6 4 3 2 1 5 2 2 4 5 11 12 8 6 7 5 3 7 11 15 19 16 14 13 10 12 13 15
12 5 5 5 5 6 6 7 4 4 5 5 5 3 5 4 5 3 2 3 5 1 3 4 6 9 13 8 5 8 10 8 4 3 4 4 6 8 10 10 9 10 12 15
6 8 6 7 6 6 6 6 2 4 5 9 9 4 3 3 3 3 4 2 2 4 4 7 3 11 13 11 11 8 6 4 3 1 1 3 3 0 4 7 10 12 13 14
6 6 6 10 11 8 6 12 8 5 6 11 7 3 4 3 3 3 1 2 5 6 5 3 8 17 10 7 7 6 5 5 4 2 3 3 1 1 4 7 11 15 16 16
8 8 7 4 3 6 10 16 12 14 11 10 3 2 2 6 3 6 9 3 6 4 3 10 16 17 11 9 8 8 8 8 7 5 4 2 1 4 6 9 13 16 17 19
7 10 27 26 23 20 17 13 12 17 18 4 3 6 9 1 3 4 4 6 3 6 11 15 16 18 18 16 13 11 11 11 11 10 8 8 9 9 11 13 12 19 21 20
Wind_Direction
359 4 11 15 39 60 68 60 56 25 52 46 64 49 14 349 63 55 62 40 58 63 75 88 102 96 48 126 166 336 29 328 252 234 116 287 287 269 263 277 151 251 278 291
2 4 8 16 31 93 77 65 74 52 85 77 73 95 86 51 45 37 32 49 28 16 46 54 55 53 39 158 257 360 32 203 275 203 186 190 238 219 229 281 296 248 284 64
5 5 3 7 18 30 27 11 61 41 56 80 54 79 53 94 47 69 64 67 87 90 65 33 122 128 142 180 239 345 323 283 266 292 334 315 247 218 215 221 253 293 248 290
8 7 6 2 7 16 54 29 44 29 69 72 79 89 93 80 65 45 44 87 48 10 64 75 70 58 163 188 189 225 270 276 302 280 280 275 260 260 233 222 236 259 297 298
1 9 11 11 10 14 63 67 13 6 38 335 113 95 63 71 117 318 79 86 35 31 75 38 11 313 215 345 176 239 187 285 328 286 270 279 262 252 244 243 239 250 264 276
350 357 7 13 16 23 45 40 52 15 52 318 287 41 142 146 191 184 329 190 230 208 148 297 289 268 262 247 244 219 255 294 321 269 295 303 273 249 230 232 235 233 246 262
359 346 353 3 12 18 26 18 14 315 94 298 355 346 327 271 300 330 210 238 264 128 301 281 261 242 246 242 235 235 249 253 274 284 302 251 38 77 287 245 239 235 249 256
356 1 350 351 356 2 9 7 30 1 334 334 210 250 293 281 257 259 271 273 303 325 309 278 277 183 207 209 223 217 222 254 269 271 290 280 288 192 199 194 270 235 240 249
360 350 355 358 352 348 335 333 352 40 308 114 258 295 322 318 314 258 245 290 299 333 290 270 282 284 17 203 181 233 209 239 254 227 275 270 64 141 126 146 266 150 230 248
350 349 343 352 0 358 347 314 309 233 254 227 192 219 203 189 289 284 289 324 284 205 243 260 262 267 10 267 253 174 189 215 225 235 256 277 108 146 154 224 83 155 194 229
342 349 338 334 344 356 359 336 319 299 282 266 244 231 197 194 210 248 52 274 170 255 261 266 255 256 157 263 245 211 211 202 203 208 226 258 144 137 210 60 102 139 201 219
334 339 341 326 316 330 350 352 330 304 271 263 262 249 239 241 229 198 203 252 235 252 258 239 307 251 220 277 272 191 240 218 282 214 227 79 193 235 221 246 291 268 247 242
333 330 336 329 311 303 315 328 334 334 304 293 271 267 253 248 238 231 213 205 202 207 203 307 290 260 272 249 233 261 233 230 239 275 250 254 240 250 254 254 267 273 257 247
331 325 323 329 321 307 300 299 309 319 302 281 283 270 260 250 237 229 226 238 208 202 183 230 245 243 201 258 278 269 256 152 239 258 274 278 272 264 255 264 259 271 254 247
315 324 315 320 324 313 306 303 286 277 252 288 292 290 276 256 254 243 234 232 226 222 215 214 227 240 238 241 266 253 218 228 218 238 282 257 283 200 229 229 256 257 280 256
297 305 312 310 318 318 328 337 21 336 248 282 292 284 279 273 240 224 223 216 221 225 231 236 239 224 215 261 249 242 216 223 229 242 261 240 247 249 261 269 278 276 271 260
283 290 299 304 306 298 263 253 268 164 350 290 295 255 268 226 210 211 211 213 225 238 246 241 248 208 203 248 249 228 223 226 236 241 246 252 250 249 257 265 272 263 262 256
280 284 285 296 300 291 275 259 250 247 297 259 273 279 259 194 171 177 195 217 220 232 246 262 238 207 229 252 244 237 242 245 246 245 242 252 253 245 260 271 260 255 251 241
274 273 280 291 284 259 261 284 255 232 219 253 216 238 275 175 178 165 171 188 231 226 247 231 221 228 228 244 240 240 238 223 231 257 250 255 252 258 262 271 262 252 248 239
257 257 272 273 259 281 288 279 236 203 209 226 251 220 219 169 181 193 207 199 246 246 214 171 240 257 262 262 252 252 243 238 243 237 243 248 249 262 278 281 274 261 255 246
221 218 218 237 271 290 255 248 219 184 238 218 242 227 226 214 184 196 221 220 239 253 153 232 258 270 253 316 294 267 246 249 252 250 243 252 263 278 276 273 268 256 238 236
239 225 222 215 213 230 248 225 206 221 236 193 197 203 203 205 198 225 193 250 234 253 132 240 257 248 284 292 283 271 243 264 239 224 245 255 266 267 254 242 259 243 238 239
208 207 203 172 202 233 219 201 223 231 208 194 166 162 167 169 192 232 192 235 239 355 233 242 239 272 291 304 264 265 272 272 245 230 262 285 282 252 232 233 255 258 249 247
211 192 195 215 196 232 200 206 202 191 182 167 158 140 173 152 186 208 214 198 263 258 242 243 266 291 306 256 261 257 263 245 244 213 68 58 54 99 229 259 269 272 269 262
236 195 229 226 223 219 215 230 243 229 172 158 143 156 182 176 218 216 310 218 245 240 239 251 300 326 304 261 258 256 239 238 237 208 142 116 85 332 313 299 292 287 283 274
218 227 247 231 244 229 228 229 230 224 185 165 109 113 219 234 205 191 209 198 233 257 239 285 319 329 301 276 269 268 262 250 226 217 233 210 330 342 346 340 332 310 297 286
222 239 237 247 260 261 244 238 226 206 165 185 167 204 213 95 217 241 215 217 230 251 296 313 308 314 313 283 274 280 281 270 255 244 240 268 269 281 300 308 315 320 307 292